Flag for U.S.A. Weather past 2 weeks in El Paso, Texas, U.S.A.

Now
56 °F

Mostly cloudy.


Feels Like: 54 °F
Forecast: 42 / 66 °F
Wind: 7 mph from Northeast

Location: El Paso International Airport

Current Time: Jan 26, 2015 at 6:46:39 PM

Latest Report: Jan 26, 2015 at 5:51 PM


Visibility: 10 mi

Pressure: 30.19 "Hg

Humidity: 36%

Dew point: 29 °F

Location of El PasoLocation

Historic Weather in El Paso — Graph

°F

El Paso temperature yesterday

Maximum temperature yesterday: 62 °F (at 3:51 PM)
Minimum temperature yesterday: 31 °F (at 5:51 AM)
Average temperature yesterday: 46 °F

Past Weeks' High & Low Weather Summary

 TemperatureHumidityPressure
High69 °F (Jan 19, 3:51 PM)100% (Jan 15, 7:51 AM)30.42 "Hg (Jan 15, 7:51 AM)
Low23 °F (Jan 23, 6:51 AM)19% (Jan 18, 3:51 PM)29.78 "Hg (Jan 21, 1:51 PM)
Average44 °F57%30.16 "Hg
* Reported Jan 11 4:51 PM — Jan 26 4:51 PM, El Paso, Weather by CustomWeather, © 2014

Note: Actual official high and low records may vary slightly from our data, if they occured in-between our weather recording intervals... More about our weather records

Advertising

El Paso weather history for previous 24 hours

 ConditionsComfort  
Time TempWeatherWind HumidityBarometerVisibility
4:51 PM
Jan 26
58 °FBroken clouds.3 mph31%30.18 "Hg10 mi
3:51 PM59 °FBroken clouds.5 mph28%30.17 "Hg10 mi
2:51 PM59 °FBroken clouds.No wind28%30.18 "Hg10 mi
1:51 PM58 °FPartly sunny.5 mph30%30.18 "Hg10 mi
12:51 PM57 °FPartly sunny.6 mph32%30.21 "Hg10 mi
11:51 AM56 °FPartly sunny.7 mph36%30.25 "Hg10 mi
10:51 AM53 °FPartly sunny.10 mph38%30.27 "Hg10 mi
9:51 AM48 °FPartly sunny.10 mph48%30.29 "Hg10 mi
8:51 AM45 °FBroken clouds.10 mph51%30.28 "Hg10 mi
7:51 AM41 °FBroken clouds.8 mph58%30.27 "Hg10 mi
6:51 AM39 °FPartly cloudy.12 mph62%30.24 "Hg10 mi
5:51 AM38 °FPassing clouds.9 mph68%30.22 "Hg10 mi
4:51 AM39 °FPassing clouds.12 mph62%30.22 "Hg10 mi
3:51 AM38 °FPassing clouds.8 mph68%30.22 "Hg10 mi
2:51 AM39 °FPassing clouds.6 mph65%30.21 "Hg10 mi
1:51 AM41 °FPassing clouds.7 mph60%30.22 "Hg10 mi
12:51 AM40 °FPassing clouds.8 mph68%30.22 "Hg10 mi
11:51 PM
Jan 25
42 °FPassing clouds.8 mph60%30.19 "Hg10 mi
10:51 PM43 °FPassing clouds.7 mph58%30.20 "Hg10 mi
9:51 PM44 °FPassing clouds.7 mph55%30.21 "Hg10 mi
8:51 PM47 °FPassing clouds.5 mph48%30.22 "Hg10 mi
7:51 PM51 °FPassing clouds.No wind41%30.22 "Hg10 mi
6:51 PM54 °FClear.No wind34%30.19 "Hg10 mi
Weather by CustomWeather, © 2014

See weather overviewHow to use our weather pages